Regional Weather Roundup
Issued by NWS

Home | Current Version | Previous Version | Text Only | Print | Product List | Glossary Off
Versions: 1 2 3 4 5 6 7 8 9 10 11 12 13 14 15 16 17 18 19 20 21 22 23 24 25 26 27 28 29 30 31 32 33 34 35 36 37 38 39 40 41 42 43 44 45 46 47 48 49 50

000
ASUS45 KCYS 260910
RWRWY

WYOMING REGIONAL WEATHER ROUNDUP
NATIONAL WEATHER SERVICE CHEYENNE WY
300 AM MDT MON JUN 26 2017

NOTE:  "FAIR" INDICATES FEW OR NO CLOUDS BELOW 12,000 FEET
WITH NO SIGNIFICANT WEATHER AND/OR OBSTRUCTIONS TO VISIBILITY.

WYZ001-261000-
YELLOWSTONE NATIONAL PARK

CITY           SKY/WX    TMP DP  RH WIND       PRES   REMARKS
LK YELLOWSTONE   N/A     37  33  85 NW3       30.44S
W YELLOWSTONE  NOT AVBL

$$
WYZ002>013-054>058-071-098>099-261000-
NORTHERN WYOMING

CITY           SKY/WX    TMP DP  RH WIND       PRES   REMARKS
JACKSON        FAIR      45  39  81 NE5       30.34F
CODY           FAIR      58  38  47 S12       30.24F
GREYBULL       FAIR      57  35  43 SE3       30.20S
WORLAND        FAIR      57  37  47 S8        30.20F
SHERIDAN       FAIR      47  39  74 N5        30.19F
BUFFALO        FAIR      54  34  46 S7        30.25F
GILLETTE       FAIR      49  33  54 S8        30.24F
NEWCASTLE      FAIR      50  28  43 S10       30.27F

$$
WYZ014>020-022>026-101>103-261000-
CENTRAL WYOMING

CITY           SKY/WX    TMP DP  RH WIND       PRES   REMARKS
BIG PINEY      FAIR      46  38  73 NE7       30.38S
PINEDALE       FAIR      43  37  81 W6        30.39S
DUBOIS         FAIR      46  34  61 NW7       30.41S
LANDER         FAIR      56  34  43 CALM      30.30S
RIVERTON       FAIR      56  37  49 E9        30.30S
CASPER         FAIR      43  37  79 NW5       30.30F
DOUGLAS        FAIR      45  36  70 CALM      30.30S

$$
WYZ021-027>030-104>119-261000-
SOUTHERN WYOMING

CITY           SKY/WX    TMP DP  RH WIND       PRES   REMARKS
EVANSTON       FAIR      61  32  33 S3        30.34F
KEMMERER         N/A     55  34  44 N14G23    30.36F
FORT BRIDGER   FAIR      57  31  37 W7        30.37S
ROCK SPRINGS   FAIR      54  26  34 E10       30.34S
DIXON          FAIR      49  30  49 CALM      30.35S
RAWLINS        FAIR      48  34  58 N3        30.35S
SARATOGA       FAIR      45  32  61 CALM      30.37R
LARAMIE        FAIR      46  43  89 S7        30.37F
CHEYENNE       FAIR      54  52  93 W8        30.32F
TORRINGTON     FAIR      51  46  83 NE8       30.22S
PINE BLUFFS    FAIR      50  50 100 CALM      30.29F

$$



USA.gov is the U.S. government's official web portal to all federal, state and local government web resources and services.